Content
SEND FEEDBACK

Daily
Averages
Monthly
Summary
United States of America

WILLOW, OKLAHOMA


Home > North America > United States > Oklahoma
Elevation: 1740 feet     Latitude: 35 03N     Longitude: 099 30W

WEATHER
 
SELECT A DAY
Number of Records: 336,116;   Date Range: 1/1/95 - 9/18/14
 
SHARE

PRINT THIS DATA

[ ← Previous Day ]
WEATHER ALMANAC - FEBRUARY 13, 2013
[ Next Day → ]
[ °C ]   °F
Weather ElementAverageHighLow
Temperature33.5 °F51.1 °F (3:53 pm)21.9 °F (6:53 am)
Dewpoint26.8 °F36 °F (5:53 pm)19.9 °F (6:53 am)
Humidity79.6 %100 % (12:53 am)38 % (3:53 pm)
Barometer30.08 in30.14 in (10:53 am)30.01 in (4:53 pm)
Wind Speed5.6 mph9.2 mph (4:53 am)
Weather ElementAverage
Visibility7.6 mi
Wind DirectionW (273 °)

Weather ElementTotal
Precipitation---
Heating Degree Days28.5 (Base 65)
Averaged from 27 records on February 13, 2013
WEATHER CONDITIONS BREAKOUT
WIND DIRECTION BREAKOUT
WEATHER BY HOUR - FEBRUARY 13, 2013
[ °C ]   °F
Local TimeTemperatureDewpointHumidityBarometerVisibilityWind DirectionWind SpeedGust SpeedPrecipitationEventsConditions
12:53 AM27.0 °F27.0 °F100 %30.12 in1.2 miWest (270°)4.6 mphClear
1:01 AM26.6 °F26.6 °F100 %30.09 in0.2 miWest (270°)5.8 mphFogLight Freezing Fog
1:18 AM26.6 °F26.6 °F100 %30.09 in1.5 miWest (280°)6.9 mphPartly Cloudy
1:21 AM26.6 °F26.6 °F100 %30.08 in3.0 miWest (280°)5.8 mphPartly Cloudy
1:53 AM26.1 °F25.0 °F96 %30.12 in5.0 miWest (270°)6.9 mphClear
2:53 AM25.0 °F24.1 °F96 %30.11 in5.0 miWest (280°)6.9 mphClear
3:53 AM24.1 °F23.0 °F96 %30.10 in6.0 miWest (270°)8.1 mphClear
4:53 AM24.1 °F23.0 °F96 %30.09 in7.0 miWest (260°)9.2 mphClear
5:53 AM23.0 °F21.9 °F96 %30.09 in7.0 miWest (270°)8.1 mphClear
6:53 AM21.9 °F19.9 °F92 %30.11 in7.0 miWNW (290°)6.9 mphClear
7:53 AM23.0 °F21.9 °F96 %30.11 in5.0 miWNW (290°)5.8 mphClear
8:53 AM26.1 °F24.1 °F92 %30.13 in7.0 miWest (270°)4.6 mphClear
9:53 AM30.9 °F27.0 °F85 %30.13 in9.0 miWest (280°)4.6 mphClear
10:53 AM33.1 °F26.1 °F75 %30.14 in10.0 miWest (260°)4.6 mphClear
11:53 AM35.1 °F25.0 °F67 %30.13 in10.0 miWSW (250°)3.5 mphClear
12:53 PM39.9 °F26.1 °F58 %30.10 in10.0 miWNW (290°)4.6 mphClear
1:53 PM46.0 °F28.9 °F51 %30.06 in10.0 miVariable5.8 mphClear
2:53 PM48.9 °F30.0 °F48 %30.04 in10.0 miWNW (300°)5.8 mphClear
3:53 PM51.1 °F26.1 °F38 %30.02 in10.0 miWNW (300°)4.6 mphClear
4:53 PM51.1 °F28.0 °F41 %30.01 in10.0 miNW (310°)3.5 mphClear
5:53 PM48.0 °F36.0 °F63 %30.01 in10.0 miNorth (360°)5.8 mphClear
6:53 PM41.0 °F35.1 °F79 %30.03 in10.0 miNorth (360°)3.5 mphClear
7:53 PM37.0 °F32.0 °F82 %30.04 in10.0 miNNW (340°)3.5 mphClear
8:53 PM39.0 °F28.9 °F67 %30.03 in10.0 miCalmClear
9:53 PM37.9 °F30.9 °F76 %30.03 in10.0 miNNW (340°)5.8 mphClear
10:53 PM33.1 °F28.0 °F82 %30.05 in10.0 miNNW (340°)8.1 mphClear
11:53 PM33.1 °F27.0 °F78 %30.06 in10.0 miNNW (340°)8.1 mphClear
Hourly data recorded from KHBR, located miles away from Willow, Oklahoma







STORIES FROM OUR PARTNERS